Regional Weather Roundup
Issued by NWS Cleveland, OH

Home | Current Version | Previous Version | Text Only | Print | Product List | Glossary On
Versions: 1 2 3 4 5 6 7 8 9 10 11 12 13 14 15 16 17 18 19 20 21 22 23 24 25 26 27 28 29 30 31 32 33 34 35 36 37 38 39 40 41 42 43 44 45 46 47 48 49 50
000
ASUS41 KCLE 182100
RWRCLE
OHIO REGIONAL WEATHER ROUNDUP
NATIONAL WEATHER SERVICE WILMINGTON, OH
400 PM EST SUN FEB 18 2018

NOTE: "FAIR" INDICATES FEW OR NO CLOUDS BELOW 12,000 FEET WITH NO
SIGNIFICANT WEATHER AND/OR OBSTRUCTIONS TO VISIBILITY.

OHZ001>008-015>018-024>027-034-035-043-044-182200-
   NORTHWEST OHIO

CITY           SKY/WX    TMP DP  RH WIND       PRES   REMARKS
DEFIANCE       FAIR      37  29  72 SE7       30.26F
FINDLAY        FAIR      42  29  59 SE9       30.26F
TOLEDO EXPRESS FAIR      37  29  72 S5        30.28F
TOLEDO EXEC    FAIR      38  29  70 S7        30.30F
LIMA           FAIR      42  32  67 S10       30.25F
$$

OHZ009>014-019>023-028>033-038-089-182200-
   NORTHEAST OHIO

CITY           SKY/WX    TMP DP  RH WIND       PRES   REMARKS
CLE-HOPKINS    CLOUDY    43  29  57 S13       30.34F
CLE-LAKEFRONT  FAIR      34  28  79 N5        30.33F WCI  30
CUY CO. ARPT   MOSUNNY   41  28  60 NW6       30.33S
LORAIN-ELYRIA  PTSUNNY   42  25  50 VRB5      30.31F
ASHTABULA      FAIR      39  26  59 S12       30.34R
AKRON-CANTON   PTSUNNY   42  27  55 S12       30.31F
WOOSTER        NOT AVBL
MANSFIELD      FAIR      41  28  60 S10       30.28F
YOUNGSTOWN     PTSUNNY   40  27  59 SW9       30.33R
$$

OHZ042-051>053-060>062-070>072-077>081-182200-
  SOUTHWEST OHIO

CITY           SKY/WX    TMP DP  RH WIND       PRES   REMARKS
CINC-COVINGTON CLOUDY    47  33  58 SE10      30.22F
CINC-LUNKEN    FAIR      48  32  53 SE9       30.25F
HAMILTON       FAIR      49  30  48 VRB7      30.25F
DAYTON         NOT AVBL
WRIGHT-PAT AFB FAIR      45  29  53 SE12      30.24F
DAYTON GENERAL FAIR      45  32  60 SE13      30.23F
WILMINGTON     FAIR      44  34  67 SE10      30.24F
$$

OHZ036-037-039>041-045>050-054>059-063>069-073>076-082>088-182200-
  CENTRAL AND SOUTHEAST OHIO

CITY           SKY/WX    TMP DP  RH WIND       PRES   REMARKS
COLUMBUS       PTSUNNY   43  30  60 E15       30.28F
OSU AIRPORT    FAIR      43  30  60 SE9       30.27F
BOLTON FIELD   SUNNY     43  30  61 SE8       30.28F
RICKENBACK AFB NOT AVBL
NEWARK         FAIR      43  29  57 SE10      30.29F
MARION         FAIR      42  28  57 SE12      30.28F
LANCASTER      FAIR      44  29  55 SE13      30.29F
ZANESVILLE     FAIR      42  28  57 SE12      30.32F
NEW PHILLY     FAIR      41  27  57 SE9G18    30.35F
$$



USA.gov is the U.S. government's official web portal to all federal, state and local government web resources and services.